Regional Weather Roundup
Issued by NWS

Home | Current Version | Previous Version | Graphics & Text | Print | Product List | Glossary On
Versions: 1 2 3 4 5 6 7 8 9 10 11 12 13 14 15 16 17 18 19 20 21 22 23 24 25 26 27 28 29 30 31 32 33 34 35 36 37 38 39 40 41 42 43 44 45 46 47 48 49 50
000
ASUS45 KABQ 190601
RWRNM
WEATHER ROUNDUP FOR NEW MEXICO
NATIONAL WEATHER SERVICE ALBUQUERQUE NM
1200 AM MDT SUN APR 19 2015

NOTE: "FAIR" MEANS FEW OR NO CLOUDS BELOW 12,000 FEET AGL WITH NO
       SIGNIFICANT WEATHER OR OBSTRUCTIONS TO VISION.

      THIS PRODUCT IS RELEASED AS TWO VERSIONS.  ONE VERSION NEAR
      THE TOP OF THE HOUR CONTAINING PRELIMINARY DATA FROM ALBUQUERQUE
      AND OTHER STATIONS.  A FINAL VERSION WITH ADDITIONAL DATA IS
      ISSUED ABOUT 10 MINUTES AFTER THE HOUR.

NMZ501-503-504-510>518-190700-
NORTHWEST PLATEAU/NORTHCENTRAL MOUNTAINS

CITY           SKY/WX    TMP DP  RH WIND       PRES   REMARKS
FARMINGTON     PTCLDY    44  36  73 W13       30.01S
6HR MIN TEMP:  44; 6HR MAX TEMP:  58; 6HR PCP: TRACE;

SANTA FE       PTCLDY    39  29  67 W7        29.94F WCI  34
6HR MIN TEMP:  39; 6HR MAX TEMP:  51;

ANGEL FIRE     CLOUDY    37  30  77 W10       29.98R WCI  29

$$
NMZ402-403-502-505>509-190700-
WESTCENTRAL MOUNTAINS/SOUTHWEST MOUNTAINS

CITY           SKY/WX    TMP DP  RH WIND       PRES   REMARKS
GALLUP         PTCLDY    43  31  62 E9        30.07S
6HR MIN TEMP:  37; 6HR MAX TEMP:  61;

GRANTS         CLEAR     44  27  50 NW21G26   30.07R
SILVER CITY      N/A     48  16  27 NW10      30.04S

$$
NMZ407-409-411-412-190700-
SOUTHERN DESERTS

CITY           SKY/WX    TMP DP  RH WIND       PRES   REMARKS
DEMING         CLEAR     52  18  26 NW5       29.99R
6HR MIN TEMP:  52; 6HR MAX TEMP:  73;

ALAMOGORDO     CLEAR     57  27  30 NE9       29.93R
T OR C         CLEAR     55  25  31 NW10      29.96S
6HR MIN TEMP:  51; 6HR MAX TEMP:  71;


$$
NMZ519>523-190700-
CENTRAL VALLEYS/CENTRAL HIGHLANDS

CITY           SKY/WX    TMP DP  RH WIND       PRES   REMARKS
ALBUQUERQUE    PTCLDY    54  25  32 N5        29.96F
6HR MIN TEMP:  52; 6HR MAX TEMP:  63;

DOUBLE EAGLE   CLEAR     46  24  41 W10       29.98S
MORIARTY ARPT  FAIR      46  22  38 NW14      29.95F
6HR MIN TEMP:  46; 6HR MAX TEMP:  58;

CLINES CORNERS CLEAR     41  24  51 NW15      29.93R
6HR MIN TEMP:  40; 6HR MAX TEMP:  50;

BELEN          FAIR      42  20  41 NW7       29.97S
6HR MIN TEMP:  41; 6HR MAX TEMP:  67;

SOCORRO        NOT AVBL

$$
NMZ524>526-539-540-190700-
SOUTHCENTRAL MOUNTAINS

CITY           SKY/WX    TMP DP  RH WIND       PRES   REMARKS
RUIDOSO        NOT AVBL

$$
NMZ527>531-190700-
NORTHEAST HIGHLANDS/NORTHEAST PLAINS

CITY           SKY/WX    TMP DP  RH WIND       PRES   REMARKS
LAS VEGAS      PTCLDY    37  20  50 S6        29.92S WCI  32
6HR MIN TEMP:  36; 6HR MAX TEMP:  53;

RATON          CLOUDY    40  31  70 N12       29.94R WCI  33
6HR MIN TEMP:  35; 6HR MAX TEMP:  51;

CLAYTON        CLEAR     41  32  70 NW14      29.87R
6HR MIN TEMP:  41; 6HR MAX TEMP:  50; 6HR PCP:  0.02;


$$
NMZ532>537-190700-
EASTCENTRAL PLAINS

CITY           SKY/WX    TMP DP  RH WIND       PRES   REMARKS
TUCUMCARI      PTCLDY    45  28  51 E5        29.85R
6HR MIN TEMP:  45; 6HR MAX TEMP:  68;

CANNON AFB     NOT AVBL
CLOVIS AIRPORT CLEAR     52  25  35 NW14      29.84R

$$
NMZ028-029-538-190700-
SOUTHEAST PLAINS

CITY           SKY/WX    TMP DP  RH WIND       PRES   REMARKS
ROSWELL        CLEAR     56  31  38 NW6       29.88R
6HR MIN TEMP:  56; 6HR MAX TEMP:  73;

ARTESIA        CLEAR     55  34  44 NW13G22   29.89R
CARLSBAD       CLEAR     56  30  37 W3        29.84R
6HR MIN TEMP:  52; 6HR MAX TEMP:  77;

HOBBS          FAIR      50  36  57 W9        29.85S


$$



USA.gov is the U.S. government's official web portal to all federal, state and local government web resources and services.